[TLELIST] Archives

 

[TLELIST] Current TLEs

May 21st 2024 PDT

HST 1 20580U 90037B 24141.49951781 .00008641 00000-0 41117-3 0 9996 2 20580 28.4671 170.5879 0002810 98.0074 262.0837 15.17393673672829 ISS (ZARYA) 1 25544U 98067A 24142.35003124 .00025335 00000-0 42455-3 0 9992 2 25544 51.6384 88.3676 0003163 192.6310 305.1222 15.51672766454387 CXO 1 25867U 99040B 24144.06363878 .00000674 00000-0 00000-0 0 9993 2 25867 40.5814 156.2306 8913299 294.7194 0.0380 0.37813759 14472 ...Continue Reading

[TLELIST] Current TLEs

May 20th 2024 PDT

HST 1 20580U 90037B 24140.51294472 .00009875 00000-0 47139-3 0 9995 2 20580 28.4673 177.1946 0002790 88.7588 271.3324 15.17377538672671 ISS (ZARYA) 1 25544U 98067A 24141.38489656 .00028504 00000-0 47719-3 0 9991 2 25544 51.6385 93.1612 0003297 187.7096 315.3150 15.51632182454231 CXO 1 25867U 99040B 24141.41825767 .00000654 00000-0 00000-0 0 9997 2 25867 40.5518 156.4184 8917274 294.5910 359.8498 0.37815615 14456 ...Continue Reading

[TLELIST] Current TLEs

May 19th 2024 PDT

HST 1 20580U 90037B 24140.18408458 .00008630 00000-0 41091-3 0 9998 2 20580 28.4674 179.3968 0002790 85.5823 274.5088 15.17370184672882 ISS (ZARYA) 1 25544U 98067A 24140.20295706 .00030653 00000-0 51361-3 0 9998 2 25544 51.6379 99.0325 0003255 185.3717 191.2672 15.51568711454054 CXO 1 25867U 99040B 24141.41825767 .00000654 00000-0 00000-0 0 9997 2 25867 40.5518 156.4184 8917274 294.5910 359.8498 0.37815615 14456 ...Continue Reading

[TLELIST] Current TLEs

May 18th 2024 PDT

HST 1 20580U 90037B 24138.80285684 .00009277 00000-0 44278-3 0 9996 2 20580 28.4675 188.6456 0002768 73.2263 286.8633 15.17339470672419 ISS (ZARYA) 1 25544U 98067A 24139.38688398 .00027809 00000-0 46772-3 0 9997 2 25544 51.6393 103.0830 0003363 180.5683 314.8310 15.51515061453923 CXO 1 25867U 99040B 24141.41825767 .00000654 00000-0 00000-0 0 9997 2 25867 40.5518 156.4184 8917274 294.5910 359.8498 0.37815615 14456 ...Continue Reading

[TLELIST] Current TLEs

May 18th 2024 PDT

HST 1 20580U 90037B 24138.80285684 .00009277 00000-0 44278-3 0 9996 2 20580 28.4675 188.6456 0002768 73.2263 286.8633 15.17339470672419 ISS (ZARYA) 1 25544U 98067A 24139.38688398 .00027809 00000-0 46772-3 0 9997 2 25544 51.6393 103.0830 0003363 180.5683 314.8310 15.51515061453923 CXO 1 25867U 99040B 24141.41825767 .00000654 00000-0 00000-0 0 9997 2 25867 40.5518 156.4184 8917274 294.5910 359.8498 0.37815615 14456 ...Continue Reading

[TLELIST] Current TLEs

May 18th 2024 PDT

HST 1 20580U 90037B 24138.80285684 .00009277 00000-0 44278-3 0 9996 2 20580 28.4675 188.6456 0002768 73.2263 286.8633 15.17339470672419 ISS (ZARYA) 1 25544U 98067A 24139.38688398 .00027809 00000-0 46772-3 0 9997 2 25544 51.6393 103.0830 0003363 180.5683 314.8310 15.51515061453923 CXO 1 25867U 99040B 24141.41825767 .00000654 00000-0 00000-0 0 9997 2 25867 40.5518 156.4184 8917274 294.5910 359.8498 0.37815615 14456 ...Continue Reading

[TLELIST] Current TLEs

May 17th 2024 PDT

HST 1 20580U 90037B 24137.55314942 .00011573 00000-0 55490-3 0 9997 2 20580 28.4675 197.0131 0002740 61.7760 298.3108 15.17318217672227 ISS (ZARYA) 1 25544U 98067A 24138.35304039 .00022546 00000-0 38190-3 0 9998 2 25544 51.6383 108.2161 0003284 178.9399 298.2365 15.51442373453765 CXO 1 25867U 99040B 24138.77365644 .00000644 00000-0 00000+0 0 9993 2 25867 40.5075 156.6402 8922033 294.4302 359.8066 0.37814091 25609 ...Continue Reading

[TLELIST] Current TLEs

May 17th 2024 PDT

HST 1 20580U 90037B 24137.55314942 .00011573 00000-0 55490-3 0 9997 2 20580 28.4675 197.0131 0002740 61.7760 298.3108 15.17318217672227 ISS (ZARYA) 1 25544U 98067A 24138.35304039 .00022546 00000-0 38190-3 0 9998 2 25544 51.6383 108.2161 0003284 178.9399 298.2365 15.51442373453765 CXO 1 25867U 99040B 24138.77365644 .00000644 00000-0 00000+0 0 9993 2 25867 40.5075 156.6402 8922033 294.4302 359.8066 0.37814091 25609 ...Continue Reading

[TLELIST] Current TLEs

May 17th 2024 PDT

HST 1 20580U 90037B 24137.55314942 .00011573 00000-0 55490-3 0 9997 2 20580 28.4675 197.0131 0002740 61.7760 298.3108 15.17318217672227 ISS (ZARYA) 1 25544U 98067A 24138.35304039 .00022546 00000-0 38190-3 0 9998 2 25544 51.6383 108.2161 0003284 178.9399 298.2365 15.51442373453765 CXO 1 25867U 99040B 24138.77365644 .00000644 00000-0 00000+0 0 9993 2 25867 40.5075 156.6402 8922033 294.4302 359.8066 0.37814091 25609 ...Continue Reading

[TLELIST] Current TLEs

May 17th 2024 PDT

HST 1 20580U 90037B 24137.55314942 .00011573 00000-0 55490-3 0 9997 2 20580 28.4675 197.0131 0002740 61.7760 298.3108 15.17318217672227 ISS (ZARYA) 1 25544U 98067A 24138.35304039 .00022546 00000-0 38190-3 0 9998 2 25544 51.6383 108.2161 0003284 178.9399 298.2365 15.51442373453765 CXO 1 25867U 99040B 24138.77365644 .00000644 00000-0 00000+0 0 9993 2 25867 40.5075 156.6402 8922033 294.4302 359.8066 0.37814091 25609 ...Continue Reading
  • This mailing list is a public mailing list - anyone may join or leave, at any time.
  • This mailing list is announce-only.

International Space Station (ISS) / Hubble Space Telescope (HST) / Chandra X-Ray Observatory Orbital Data via EMAIL

Privacy Policy:

Private list